West Columbia, SC

8:24 PM EST on February 09, 2016 (GMT -0500)
Rosewood 2 | | Change Station
CLOSE
Current Station
Personal Weather Station
Location: Columbia, SC
Elevation: 246 ft
Nearby Weather Stations
Active Advisory: Lake Wind Advisory

Elev 246 ft 33.98 °N, 81.01 °W | Updated 22 seconds ago

Overcast
Overcast
35.4 °F
Feels Like 35 °F
N
1.7
Wind Variable Wind from West

Today
High -- | Low -- °F
--% Chance of Precip.
Yesterday
High -- | Low -- °F
Precip. -- in
Pressure 29.91 in
Visibility 10.0 miles
Clouds Scattered Clouds 8000 ft
Overcast 10000 ft
Windchill 35 °F
Dew Point 23 °F
Humidity 60%
Rainfall 0.00 in
Snow Depth Not available.
7:15 AM 6:02 PM
Waxing Crescent, 3% visible
METAR KCAE 100056Z 26013G22KT 10SM SCT080 OVC100 03/M06 A2990 RMK AO2 SLP126 T00281061
Pressure 29.91 in
Visibility 10.0 miles
Clouds Scattered Clouds 8000 ft
Overcast 10000 ft
Windchill 35 °F
Dew Point 23 °F
Humidity 60%
Rainfall 0.00 in
Snow Depth Not available.
7:15 AM 6:02 PM
Waxing Crescent, 3% visible
METAR KCAE 100056Z 26013G22KT 10SM SCT080 OVC100 03/M06 A2990 RMK AO2 SLP126 T00281061

10-Day Weather Forecast

Almanac

Astronomy

Feb. 09, 2016 Rise Set
Actual Time
Civil Twilight
Nautical Twilight
Astronomical Twilight
Moon
Length of Visible Light
Length of Day
Tomorrow will be .
, % of the Moon is Illuminated

Today's Extremes

State Highs State Lows

Community

WunderPhotos

Upload Photos

1,891,758 photos uploaded!

WunderBlog® & News

Nearby

Air Quality

  Air Quality AQ Index Pollutant
Not available.

Snow Depth

Station Depth Elevation

Earthquake Activity

City Distance Mag. Time & Date
Minimum magnitude displayed is 2.5.

Coastal Water Temperatures

Place Temperature

Stations

Nearby Weather Stations

Station Location Temp. Windchill Dew Point Humidity Wind Precip. Elev Updated Type
                   

Watches & Warnings

Lake Wind Advisory
Issued: 2:32 PM EST Feb. 9, 2016 – National Weather Service

... Lake Wind Advisory remains in effect until 11 PM EST
Wednesday...

* timing... today through Wednesday evening.

* Winds... west 20 to 30 knots.

* Impacts... strong winds and rough chop will create hazardous
conditions for small craft and personal watercraft.

Precautionary/preparedness actions...

A lake Wind Advisory indicates that winds will cause rough chop
on area lakes. Small boats will be especially prone to capsizing.